THOR ABLESTAR DEB, 138

Orbit data source: Space-Track

THOR ABLESTAR DEB, 138 is space debris in LEO originally from a launch on Thu, 29 Jun 1961 UTC launched from the Air Force Eastern Test Range (AFETR). Debris objects in space refer to the collection of defunct objects orbiting the Earth. Examples of debris include non-operational satellites, rocket bodies, and fragments generated from explosions, collisions, or faulty payload assembly.

Loading next visibility...
THOR ABLESTAR DEB details
Identifier
138, 1961-015Y
Orbit
LEO
Last TLE update6 hours ago
Origin
Flag of USUSAF SSD (US)
ManufacturerUnknown
MissionSpacecraft
Bus & MotorUnknown
MassUnknown
Launch date (UTC)
1961-06-29 (64 years ago)
Launch vehicleUnknown
Launch site
Air Force Eastern Test Range (AFETR)
Object type
Payload
Rocket body
Debris
Shape & HBRUnknown
Radar Cross SectionSmall (<0.1 m²)

Expand to show TLE details & history

TLE from 6 hours ago
0 THOR ABLESTAR DEB
1 00138U 61015Y   25044.52740307  .00001092  00000-0  73580-3 0  9996
2 00138  67.1527 224.5661 0027623 149.5582 210.7118 14.03983118234212
Epoch: 2025-02-13T12:39Z
Definitive object data (Epoch: 2025-02-13T12:39:27.625Z)
Latitude0.00006°
Longitude-109.10122°
Altitude899.405 km
Speed7.394 km/s
True Right ascension14h 58m 15s
True Declination0° 00' 00"
Sunlit
Object was in daylight at TLE epoch
Visualization TLE readout
Latitude-19.34009°
Longitude78.73479°
Altitude874.094 km
Speed7.421 km/s
Apparent Right ascension05h 48m 41s
Apparent Declination-36° 57' 56"
Sunlit
Object is in daylight
Visualization observer readout
Local Sidereal Time21:20:01
Azimuth103.383° ESE
Elevation-49.12°
Doppler factor1
Orbital elements
Apogee altitude898.423 km
Perigee altitude858.333 km
Semi-major axis7,256.515 km
Eccentricity0.0027623
Inclination67.1527°
RAAN224.5661°
Arg. of periapsis149.5582°
True anomaly210.55062°
Mean anomaly210.7118°
Eccentric anomaly210.63116°
Mean motion3.51116 °/min
BSTAR0.0007358
Orbital period102.53 mins
Loading maneuver chart data...

THOR ABLESTAR DEB Visibility forecast

Observer location: undefined°, undefined

Span
Click to sort rows by Start time (UTC) header in descending order
Start Az.
Max El. time (UTC)
Max El. Az.
Max El.
End time (UTC)
End Az.
9 mins2025-02-13 21:44:17.186Z351.728° N2025-02-13 21:49:17.186Z55.847° ENE26.255°2025-02-13 21:53:17.186Z106.614° ESE
9 mins2025-02-13 23:30:17.186Z313.639° NW2025-02-13 23:34:17.186Z254.991° W34.483°2025-02-13 23:39:17.186Z180.995° SSW
9 mins2025-02-14 12:43:17.186Z170.519° S2025-02-14 12:47:17.186Z107.71° ESE32.833°2025-02-14 12:52:17.186Z44.239° NE
8 mins2025-02-14 14:29:17.186Z257.865° W2025-02-14 14:32:17.186Z301.925° NW28.328°2025-02-14 14:37:17.186Z8.826° NNE
|